Location: Deuil
(48.9767°N, 2.3272°E)
Time: 02:01:09
(UTC+00:00)

Cosmos 2360 Rocket - Pass Details

Date: 31 May 2022
Orbit: 832 x 846 km, 71.0° (Epoch: 03 July)

Event Time Altitude Azimuth Distance (km) Brightness Sun altitude
Rises 23:45:25 0° 258° (WSW) 3,386 5.2 -19.0°
Reaches altitude 10° 23:48:34 10° 276° (W) 2,458 4.7 -19.0°
Maximum altitude 23:52:34 20° 322° (NW) 1,882 4.6 -19.0°
Drops below altitude 10° 23:56:37 10° 7° (N) 2,472 5.9 -19.0°
Sets 23:59:48 0° 25° (NNE) 3,413 6.6 -19.0°
